Regional Weather Roundup
Issued by NWS Cleveland, OH

Home | Current Version | Previous Version | Graphics & Text | Print | Product List | Glossary On
Versions: 1 2 3 4 5 6 7 8 9 10 11 12 13 14 15 16 17 18 19 20 21 22 23 24 25 26 27 28 29 30 31 32 33 34 35 36 37 38 39 40 41 42 43 44 45 46 47 48 49 50
000
ASUS41 KCLE 221110
RWRCLE
OHIO REGIONAL WEATHER ROUNDUP
NATIONAL WEATHER SERVICE WILMINGTON, OH
600 AM EST MON DEC 22 2014

NOTE: "FAIR" INDICATES FEW OR NO CLOUDS BELOW 12,000 FEET WITH NO
SIGNIFICANT WEATHER AND/OR OBSTRUCTIONS TO VISIBILITY.

OHZ001>008-015>018-024>027-034-035-043-044-221200-
   NORTHWEST OHIO

CITY           SKY/WX    TMP DP  RH WIND       PRES   REMARKS
DEFIANCE       CLEAR     25  21  85 E6        30.07F FOG     WCI  18
FINDLAY        CLEAR     25  20  81 E7        30.05F HAZE    WCI  17
TOLEDO EXPRESS CLEAR     23  20  88 E3        30.09F FOG
TOLEDO METCALF PTCLDY    26  20  77 E5        30.10F WCI  20
LIMA           CLEAR     28  22  78 SE8       30.03F HAZE    WCI  20
$$

OHZ009>014-019>023-028>033-038-089-221200-
   NORTHEAST OHIO

CITY           SKY/WX    TMP DP  RH WIND       PRES   REMARKS
CLE-HOPKINS    MOCLDY    25  21  85 SE3       30.14S
CLE-LAKEFRONT  PTCLDY    28  21  75 SE9       30.12S WCI  19
CUY CO. ARPT   NOT AVBL
LORAIN-ELYRIA  MOCLDY    24  21  88 CALM      30.11F
ASHTABULA      MOCLDY    25  20  81 SE6       30.14R WCI  18
AKRON-CANTON   MOCLDY    23  19  85 E5        30.09S FOG     WCI  17
WOOSTER        PTCLDY    22  19  89 E5        30.09F FOG     WCI  16
MANSFIELD      MOCLDY    22  20  92 E7        30.05F WCI  13
YOUNGSTOWN     MOCLDY    24  20  84 E9        30.11R WCI  14
$$

OHZ042-051>053-060>062-070>072-077>081-221200-
  SOUTHWEST OHIO

CITY           SKY/WX    TMP DP  RH WIND       PRES   REMARKS
CINC-COVINGTON CLOUDY    34  25  69 SE7       30.01S WCI  28
CINC-LUNKEN    CLOUDY    30  28  92 CALM      30.04F
HAMILTON       CLOUDY    31  28  89 NE3       30.04F
DAYTON         CLOUDY    30  25  81 SE6       30.03S WCI  24
WRIGHT-PAT AFB CLOUDY    28  25  89 NE5       30.04S WCI  23
DAYTON GENERAL CLOUDY    31  26  82 E7        30.02R WCI  24
WILMINGTON     CLOUDY    29  25  85 E7        30.03S WCI  22
$$

OHZ036-037-039>041-045>050-054>059-063>069-073>076-082>088-221200-
  CENTRAL AND SOUTHEAST OHIO

CITY           SKY/WX    TMP DP  RH WIND       PRES   REMARKS
COLUMBUS       MOCLDY    25  21  85 NE3       30.06F
OSU AIRPORT    PTCLDY    22  19  89 NE6       30.05F FOG     WCI  14
BOLTON FIELD   CLOUDY    28  25  89 E3        30.06S
RICKENBACK AFB CLOUDY    25  23  91 NE3       30.06R
NEWARK         PTCLDY    24  20  84 N3        30.07F FOG
MARION         CLEAR     24  19  81 SE3       30.06F HAZE
LANCASTER      CLOUDY    29  22  75 CALM      30.07S HAZE
ZANESVILLE     PTCLDY    22  19  89 CALM      30.08S FOG
NEW PHILLY     PTCLDY    21  17  84 CALM      30.11S
$$


USA.gov is the U.S. government's official web portal to all federal, state and local government web resources and services.